Back to catalog

STARLINK-3235

AliveCommunicationsVLEO
NORAD 50200·PAYLOAD·🇺🇸 United States

Launched Dec 18, 2021 from Vandenberg Space Force Base

Loading…

Next Passes (next 24 hours)

TLE

FreshSource: CelesTrak SupGP

Epoch: Sep 14, 2026, 13:15 UTC

1 50200C 21125AW  26257.55256944  .00028126  00000+0  85342-3 0  2570
2 50200  53.1590 101.8072 0001049 112.9832 209.3013 15.33536558    14

Track STARLINK-3235 in real time with AllMySat

Download on the App Store